QPF
0.00 0.00 0.00 0.00 0.01 0.00 0.00 0.00 0.01 0.04 0.35 0.18 0.07 0.09 0.15 0.09 0.03 0.01 0.00 0.00 0.01 0.01 0.00 0.00 0.00 0.00 0.00 0.00 0.00 0.00 0.00 0.00 0.00 0.00 0.00 0.00 0.00 0.00 0.00 0.00 0.00 0.00 0.00
0.01 0.00 0.00 0.01 0.04 0.03 0.01 0.00 0.01 0.04 0.47 0.56 0.24 0.05 0.04 0.09 0.10 0.04 0.02 0.02 0.04 0.03 0.02 0.00 0.00 0.00 0.00 0.00 0.00 0.00 0.00 0.00 0.00 0.00 0.00 0.00 0.00 0.00 0.00 0.00 0.00 0.00 0.00
0.01 0.01 0.02 0.02 0.05 0.06 0.03 0.01 0.01 0.05 0.32 0.87 0.60 0.21 0.12 0.10 0.16 0.13 0.08 0.07 0.09 0.07 0.04 0.01 0.00 0.00 0.00 0.00 0.00 0.00 0.00 0.00 0.00 0.00 0.00 0.00 0.00 0.00 0.00 0.00 0.00 0.00 0.00
0.07 0.07 0.03 0.04 0.05 0.07 0.08 0.03 0.00 0.03 0.20 0.71 1.31 0.91 0.30 0.11 0.08 0.08 0.07 0.08 0.10 0.10 0.05 0.01 0.00 0.00 0.00 0.00 0.00 0.00 0.00 0.00 0.00 0.00 0.00 0.00 0.00 0.00 0.00 0.00 0.00 0.00 0.00
0.65 0.47 0.07 0.03 0.11 0.13 0.09 0.04 0.01 0.01 0.09 0.31 0.60 1.18 0.84 0.30 0.13 0.16 0.13 0.13 0.11 0.07 0.05 0.01 0.00 0.00 0.00 0.00 0.00 0.00 0.00 0.00 0.00 0.00 0.00 0.00 0.00 0.00 0.00 0.00 0.00 0.00 0.00
0.59 0.94 1.12 0.31 0.19 0.18 0.13 0.05 0.03 0.02 0.03 0.13 0.28 0.38 0.71 0.47 0.28 0.34 0.42 0.35 0.17 0.12 0.07 0.02 0.00 0.00 0.00 0.00 0.00 0.00 0.00 0.00 0.00 0.01 0.01 0.03 0.05 0.01 0.00 0.00 0.00 0.00 0.00
0.69 0.81 1.27 0.90 0.56 0.24 0.12 0.04 0.01 0.01 0.03 0.06 0.15 0.21 0.22 0.20 0.20 0.19 0.21 0.31 0.37 0.25 0.11 0.03 0.01 0.00 0.00 0.00 0.00 0.00 0.01 0.03 0.05 0.08 0.10 0.15 0.12 0.04 0.00 0.00 0.00 0.00 0.00
0.47 0.30 0.50 0.34 0.18 0.04 0.02 0.00 0.00 0.00 0.00 0.02 0.06 0.08 0.10 0.09 0.09 0.10 0.08 0.05 0.08 0.09 0.12 0.06 0.02 0.01 0.01 0.01 0.02 0.05 0.05 0.09 0.08 0.07 0.10 0.10 0.07 0.02 0.00 0.00 0.00 0.00 0.00
0.22 0.11 0.24 0.17 0.13 0.05 0.01 0.00 0.00 0.00 0.01 0.02 0.02 0.04 0.04 0.04 0.04 0.04 0.03 0.04 0.04 0.07 0.12 0.14 0.02 0.02 0.04 0.04 0.05 0.09 0.07 0.09 0.09 0.05 0.04 0.03 0.01 0.01 0.00 0.00 0.00 0.01 0.02
0.35 0.29 0.23 0.11 0.03 0.01 0.00 0.00 0.00 0.01 0.01 0.15 0.17 0.25 0.13 0.10 0.15 0.06 0.02 0.04 0.05 0.05 0.08 0.18 0.20 0.06 0.14 0.19 0.21 0.20 0.16 0.12 0.09 0.08 0.04 0.01 0.00 0.00 0.00 0.00 0.01 0.04 0.11
0.11 0.09 0.04 0.02 0.01 0.00 0.00 0.00 0.00 0.03 0.05 0.12 0.34 0.38 0.70 0.36 0.30 0.16 0.03 0.04 0.03 0.04 0.05 0.08 0.12 0.12 0.11 0.14 0.18 0.17 0.13 0.08 0.05 0.04 0.03 0.03 0.03 0.03 0.02 0.02 0.02 0.05 0.15
0.00 0.05 0.03 0.00 0.00 0.00 0.00 0.00 0.00 0.01 0.04 0.04 0.11 0.15 0.29 0.48 0.36 0.29 0.15 0.12 0.13 0.10 0.08 0.07 0.07 0.05 0.05 0.06 0.09 0.10 0.10 0.07 0.04 0.02 0.01 0.01 0.02 0.09 0.23 0.24 0.20 0.16 0.13
0.00 0.00 0.00 0.00 0.00 0.00 0.00 0.00 0.00 0.00 0.01 0.01 0.00 0.03 0.09 0.15 0.22 0.24 0.19 0.16 0.18 0.19 0.16 0.12 0.09 0.08 0.05 0.04 0.05 0.08 0.09 0.08 0.07 0.06 0.04 0.02 0.02 0.02 0.06 0.12 0.22 0.24 0.17
0.00 0.00 0.00 0.00 0.00 0.00 0.00 0.00 0.00 0.00 0.00 0.01 0.01 0.01 0.05 0.07 0.10 0.09 0.09 0.17 0.22 0.20 0.18 0.14 0.11 0.14 0.17 0.14 0.09 0.08 0.09 0.10 0.07 0.07 0.06 0.07 0.07 0.04 0.03 0.07 0.12 0.15 0.13
0.00 0.00 0.00 0.00 0.00 0.00 0.00 0.00 0.00 0.00 0.00 0.00 0.01 0.01 0.00 0.00 0.00 0.00 0.02 0.06 0.08 0.08 0.08 0.11 0.11 0.10 0.10 0.13 0.14 0.13 0.14 0.15 0.11 0.10 0.10 0.14 0.14 0.12 0.14 0.13 0.11 0.08 0.05
0.00 0.00 0.00 0.00 0.00 0.00 0.00 0.00 0.00 0.00 0.00 0.00 0.00 0.00 0.00 0.00 0.00 0.00 0.00 0.01 0.03 0.05 0.08 0.10 0.11 0.12 0.12 0.17 0.21 0.21 0.19 0.16 0.12 0.09 0.07 0.08 0.09 0.12 0.19 0.21 0.17 0.08 0.03
0.00 0.00 0.00 0.00 0.00 0.00 0.00 0.00 0.00 0.00 0.00 0.00 0.00 0.00 0.00 0.00 0.00 0.00 0.00 0.00 0.00 0.00 0.01 0.03 0.06 0.10 0.15 0.17 0.13 0.10 0.08 0.08 0.08 0.06 0.05 0.05 0.06 0.06 0.02 0.03 0.04 0.02 0.01
0.00 0.00 0.00 0.00 0.00 0.00 0.00 0.00 0.00 0.00 0.00 0.00 0.00 0.00 0.00 0.00 0.00 0.00 0.00 0.00 0.00 0.00 0.00 0.00 0.00 0.00 0.01 0.01 0.03 0.05 0.07 0.07 0.08 0.10 0.09 0.07 0.05 0.04 0.02 0.01 0.02 0.01 0.00
0.00 0.00 0.00 0.00 0.00 0.00 0.00 0.00 0.00 0.00 0.00 0.00 0.00 0.00 0.00 0.00 0.00 0.00 0.00 0.00 0.00 0.00 0.00 0.00 0.00 0.00 0.00 0.01 0.00 0.00 0.00 0.00 0.01 0.01 0.02 0.02 0.01 0.01 0.01 0.01 0.03 0.03 0.01
0.00 0.00 0.00 0.00 0.00 0.00 0.00 0.00 0.00 0.00 0.00 0.00 0.00 0.00 0.00 0.00 0.00 0.00 0.00 0.00 0.00 0.00 0.00 0.00 0.00 0.00 0.00 0.00 0.00 0.00 0.00 0.00 0.00 0.01 0.01 0.02 0.01 0.01 0.03 0.03 0.04 0.05 0.03
0.00 0.00 0.00 0.00 0.00 0.00 0.00 0.00 0.00 0.00 0.00 0.00 0.00 0.00 0.00 0.00 0.00 0.00 0.00 0.00 0.00 0.00 0.00 0.00 0.00 0.00 0.00 0.00 0.00 0.00 0.00 0.00 0.00 0.00 0.01 0.02 0.02 0.02 0.04 0.09 0.10 0.04 0.00
0.00 0.00 0.00 0.00 0.00 0.00 0.00 0.00 0.00 0.00 0.00 0.00 0.00 0.00 0.00 0.00 0.00 0.00 0.00 0.00 0.00 0.00 0.00 0.00 0.00 0.00 0.00 0.00 0.00 0.00 0.00 0.00 0.00 0.00 0.01 0.01 0.00 0.01 0.03 0.05 0.05 0.02 0.00
0.00 0.00 0.00 0.00 0.00 0.00 0.00 0.00 0.00 0.00 0.00 0.00 0.00 0.00 0.00 0.00 0.00 0.00 0.00 0.00 0.00 0.00 0.00 0.00 0.00 0.00 0.00 0.00 0.00 0.00 0.00 0.00 0.00 0.01 0.01 0.01 0.00 0.00 0.00 0.00 0.00 0.00 0.00
0.00 0.00 0.00 0.00 0.00 0.00 0.00 0.00 0.00 0.00 0.00 0.00 0.00 0.00 0.00 0.00 0.00 0.00 0.00 0.00 0.00 0.00 0.00 0.00 0.00 0.00 0.00 0.00 0.00 0.00 0.00 0.00 0.00 0.00 0.01 0.01 0.01 0.01 0.01 0.01 0.02 0.01 0.00
0.00 0.00 0.00 0.00 0.00 0.00 0.00 0.00 0.00 0.00 0.00 0.00 0.00 0.00 0.00 0.00 0.00 0.00 0.00 0.00 0.00 0.00 0.00 0.00 0.00 0.00 0.00 0.00 0.00 0.00 0.00 0.00 0.00 0.00 0.00 0.01 0.00 0.00 0.01 0.02 0.03 0.03 0.02
0.00 0.00 0.00 0.00 0.00 0.00 0.00 0.00 0.00 0.00 0.00 0.00 0.00 0.00 0.00 0.00 0.00 0.00 0.00 0.00 0.00 0.00 0.00 0.00 0.00 0.00 0.00 0.00 0.00 0.00 0.01 0.01 0.02 0.01 0.00 0.00 0.00 0.00 0.00 0.01 0.03 0.03 0.02
MSLP
1003.99 1003.41 1003.38 1003.68 1004.02 1004.52 1005.14 1005.39 1005.83 1004.93 1005.20 1005.58 1006.30 1007.38 1008.11 1009.16 1010.32 1010.74 1011.15 1012.00 1012.78 1013.17 1014.11 1014.84 1015.49 1016.08 1016.80 1017.26 1018.01 1018.71 1019.26 1019.64 1019.86 1020.29 1020.50 1020.42 1020.33 1020.29 1020.23 1020.18 1020.38 1020.66 1020.85
1002.97 1003.05 1003.07 1003.37 1003.56 1003.90 1004.33 1004.85 1005.22 1004.70 1005.01 1005.41 1005.82 1006.37 1007.55 1008.20 1009.54 1009.97 1010.74 1011.16 1012.04 1012.66 1013.81 1014.76 1015.13 1015.77 1016.62 1017.22 1017.72 1018.13 1018.94 1019.30 1019.43 1019.90 1020.34 1020.69 1020.76 1020.60 1020.52 1020.46 1020.53 1020.70 1020.98
1001.89 1001.95 1002.37 1002.76 1003.36 1003.84 1003.88 1004.50 1004.71 1004.57 1004.48 1006.02 1006.17 1005.43 1007.49 1007.98 1008.80 1009.87 1010.39 1011.00 1011.57 1012.25 1012.92 1013.99 1014.80 1015.40 1016.08 1016.64 1017.19 1017.54 1018.07 1018.91 1019.33 1019.25 1019.54 1020.44 1020.46 1020.61 1020.72 1020.70 1020.63 1020.79 1020.99
1001.13 1001.55 1002.28 1002.44 1003.11 1003.77 1003.68 1004.52 1004.59 1004.57 1004.46 1003.75 1005.62 1006.40 1005.78 1006.42 1007.87 1008.82 1009.63 1010.65 1011.24 1012.04 1012.53 1013.37 1014.15 1014.99 1015.92 1016.22 1016.69 1017.13 1017.59 1018.13 1018.94 1019.32 1019.19 1019.17 1019.35 1020.15 1020.90 1020.80 1020.65 1020.45 1020.37
1001.18 1001.56 1002.17 1002.49 1003.20 1003.66 1003.99 1004.64 1004.70 1004.29 1003.40 1005.01 1004.82 1005.49 1004.83 1006.27 1008.05 1009.08 1009.70 1010.24 1011.06 1011.65 1012.34 1012.81 1013.64 1014.59 1015.20 1015.72 1016.25 1016.74 1017.13 1017.48 1018.08 1018.52 1019.02 1019.26 1019.28 1019.27 1019.86 1020.48 1020.55 1020.65 1020.47
1002.12 1002.42 1002.64 1003.25 1003.50 1003.85 1003.60 1004.41 1004.71 1003.88 1004.41 1003.59 1005.21 1005.40 1006.14 1006.43 1008.17 1009.00 1009.65 1010.15 1010.91 1011.66 1012.44 1012.69 1012.95 1014.02 1014.52 1015.21 1015.55 1015.92 1016.54 1017.04 1017.41 1017.95 1018.28 1018.57 1018.85 1019.10 1019.48 1019.98 1020.20 1020.52 1020.37
1004.85 1003.98 1002.68 1002.60 1003.39 1003.65 1004.21 1004.35 1004.50 1004.49 1004.22 1003.90 1005.37 1005.96 1006.91 1007.20 1007.66 1008.38 1008.86 1009.62 1010.70 1011.52 1011.88 1012.21 1013.32 1013.43 1013.86 1014.39 1015.02 1015.43 1015.91 1016.47 1016.90 1017.19 1017.61 1017.98 1018.26 1018.51 1019.19 1019.56 1019.83 1020.02 1020.32
1006.66 1005.93 1004.99 1004.85 1004.44 1004.66 1004.66 1004.82 1004.30 1004.45 1005.67 1005.76 1005.30 1005.91 1006.68 1007.05 1007.57 1008.10 1008.55 1009.24 1009.93 1011.00 1011.28 1012.09 1012.60 1013.01 1013.38 1013.91 1014.40 1014.85 1015.43 1015.70 1016.39 1016.87 1017.14 1017.35 1017.43 1017.88 1018.41 1019.16 1019.61 1020.14 1020.46
1008.58 1007.99 1006.97 1006.50 1005.94 1005.27 1005.32 1005.50 1005.57 1005.41 1004.43 1004.77 1005.44 1005.77 1006.33 1006.74 1007.61 1007.94 1008.53 1009.08 1009.82 1010.50 1011.29 1011.73 1012.48 1012.76 1013.02 1013.55 1014.04 1014.53 1015.11 1015.48 1015.96 1016.22 1016.79 1017.18 1017.26 1017.46 1017.94 1018.47 1018.54 1018.95 1019.85
1009.89 1009.34 1008.69 1007.88 1007.10 1006.52 1005.58 1004.71 1004.50 1005.74 1005.97 1005.69 1005.54 1006.10 1006.11 1006.92 1007.52 1007.96 1008.71 1009.31 1009.94 1010.80 1011.27 1011.85 1012.37 1012.90 1012.93 1013.26 1013.74 1014.40 1014.58 1015.07 1015.36 1015.84 1016.19 1016.29 1016.58 1017.11 1017.42 1017.91 1018.18 1018.27 1018.40
1011.80 1011.16 1010.30 1009.44 1008.46 1007.40 1006.89 1006.93 1006.73 1006.48 1006.22 1006.05 1006.04 1006.03 1006.49 1007.08 1007.88 1007.64 1008.78 1009.49 1010.25 1010.90 1011.44 1011.77 1012.25 1012.79 1012.84 1013.12 1013.48 1013.82 1014.36 1014.74 1015.14 1015.48 1015.73 1016.22 1016.43 1016.81 1017.01 1017.46 1017.68 1017.86 1018.17
1013.20 1012.52 1011.86 1011.03 1010.06 1009.74 1009.05 1008.21 1007.23 1006.48 1006.70 1007.06 1006.90 1007.08 1007.38 1007.20 1007.82 1008.30 1009.04 1009.70 1010.48 1010.98 1011.43 1011.74 1012.44 1012.68 1012.77 1012.82 1012.92 1013.37 1014.28 1014.53 1014.81 1015.05 1015.58 1015.72 1016.15 1016.38 1016.61 1016.90 1016.91 1017.04 1017.06
1014.26 1013.80 1012.92 1012.36 1011.80 1011.17 1010.22 1009.49 1008.72 1008.13 1007.54 1007.26 1007.64 1008.04 1008.08 1008.28 1008.61 1009.04 1009.50 1009.98 1010.53 1010.64 1011.17 1011.54 1011.93 1012.46 1012.75 1012.89 1013.22 1013.42 1013.76 1013.97 1014.24 1014.52 1015.27 1015.16 1015.67 1015.94 1016.18 1016.62 1016.85 1016.85 1017.17
1015.13 1014.66 1014.06 1013.64 1013.15 1012.53 1011.52 1010.75 1010.00 1009.33 1008.47 1008.10 1008.30 1008.42 1008.62 1008.81 1009.31 1009.81 1009.74 1009.80 1010.07 1010.55 1010.84 1011.21 1011.65 1012.03 1012.58 1012.81 1012.97 1013.25 1013.48 1013.03 1013.85 1014.19 1014.41 1014.68 1015.02 1015.25 1015.69 1015.83 1016.35 1016.85 1017.24
1015.81 1015.52 1015.24 1014.77 1014.35 1013.57 1012.84 1012.18 1011.30 1010.58 1010.02 1009.60 1009.59 1009.59 1009.56 1009.74 1010.24 1010.65 1010.59 1010.53 1010.61 1010.88 1010.98 1011.27 1011.56 1011.67 1011.93 1012.11 1012.46 1012.65 1012.94 1013.06 1013.36 1013.53 1013.77 1013.98 1014.11 1014.38 1014.70 1015.01 1015.65 1016.37 1017.18
1016.21 1016.11 1015.80 1015.52 1015.05 1014.55 1014.09 1013.42 1012.72 1011.96 1011.20 1011.14 1011.31 1010.91 1010.76 1010.81 1011.15 1011.30 1011.22 1011.25 1011.38 1011.69 1011.82 1011.71 1011.66 1011.75 1011.94 1012.15 1011.97 1011.92 1012.26 1012.32 1012.59 1013.24 1013.18 1013.85 1013.88 1014.26 1014.53 1014.58 1014.74 1015.78 1016.29
1016.80 1016.48 1016.23 1016.01 1015.65 1015.42 1014.99 1014.39 1013.72 1013.17 1012.75 1012.85 1012.39 1012.15 1011.94 1012.00 1011.87 1011.59 1011.73 1012.06 1012.10 1012.33 1012.52 1012.42 1011.96 1011.78 1012.11 1012.09 1012.15 1012.36 1012.37 1012.26 1012.10 1012.58 1013.44 1014.07 1014.22 1014.36 1014.46 1014.83 1015.44 1015.83 1016.07
1016.73 1016.79 1016.55 1016.47 1016.00 1015.81 1015.38 1014.78 1014.36 1014.08 1013.95 1013.52 1013.25 1013.02 1012.77 1012.85 1012.59 1012.65 1012.98 1012.99 1013.15 1013.07 1012.97 1012.72 1012.45 1012.22 1012.34 1012.59 1012.73 1012.73 1012.59 1012.68 1013.00 1013.25 1013.60 1014.06 1014.41 1014.71 1014.65 1015.16 1015.74 1016.63 1016.95
1016.91 1017.03 1016.92 1016.66 1016.60 1016.47 1016.16 1015.79 1015.26 1015.08 1014.85 1014.69 1014.24 1013.85 1013.68 1013.42 1013.50 1013.74 1013.61 1013.53 1013.73 1013.72 1013.48 1013.13 1012.98 1012.90 1012.76 1012.53 1012.82 1012.90 1012.95 1012.96 1013.44 1013.86 1014.19 1014.49 1014.69 1014.98 1015.26 1015.42 1016.13 1016.70 1017.16
1016.58 1016.62 1016.77 1016.96 1016.92 1016.83 1016.62 1016.42 1016.10 1015.70 1015.60 1015.33 1014.77 1014.50 1014.34 1014.25 1014.11 1014.13 1013.97 1014.01 1014.04 1013.88 1013.67 1013.57 1013.32 1013.01 1012.88 1012.75 1012.94 1012.88 1013.04 1013.09 1013.40 1013.63 1013.98 1014.31 1014.55 1014.87 1015.26 1015.69 1016.41 1017.15 1016.96
1016.28 1016.54 1016.80 1016.74 1016.66 1016.37 1016.26 1016.28 1016.23 1016.23 1016.00 1015.60 1015.23 1014.94 1014.77 1014.66 1014.62 1014.58 1014.56 1014.36 1014.33 1014.11 1013.98 1014.06 1013.50 1013.42 1013.18 1012.96 1012.92 1012.98 1013.15 1013.28 1013.11 1013.21 1013.59 1013.87 1014.23 1014.62 1014.91 1015.58 1015.93 1016.33 1017.12
1016.25 1016.14 1016.32 1016.57 1016.62 1016.69 1016.54 1016.63 1016.43 1016.33 1016.03 1015.70 1015.46 1015.36 1015.11 1014.99 1014.91 1014.84 1014.77 1014.69 1014.57 1014.36 1014.15 1014.11 1014.04 1013.60 1013.35 1013.35 1013.37 1013.28 1013.08 1013.16 1013.01 1013.17 1013.36 1013.62 1013.78 1014.14 1014.69 1015.20 1015.51 1016.36 1016.62
1016.09 1016.30 1016.46 1016.65 1016.78 1016.85 1016.71 1016.80 1016.75 1016.52 1016.23 1015.92 1015.66 1015.38 1015.14 1014.90 1014.77 1014.84 1014.82 1014.68 1014.46 1014.35 1014.28 1014.21 1013.90 1013.60 1013.53 1013.48 1013.19 1012.95 1013.01 1013.02 1013.07 1012.93 1013.01 1013.06 1013.43 1013.98 1014.39 1014.83 1015.34 1016.06 1016.46
1016.10 1016.21 1016.38 1016.47 1016.68 1016.66 1016.69 1016.81 1016.77 1016.45 1016.18 1016.09 1016.00 1015.60 1015.33 1015.16 1014.91 1014.78 1014.87 1014.88 1014.76 1014.49 1014.30 1014.22 1014.12 1013.79 1013.43 1013.11 1012.85 1012.77 1012.71 1012.80 1012.94 1012.86 1013.04 1013.26 1013.27 1013.49 1013.86 1014.42 1015.04 1015.45 1016.11
1015.91 1015.91 1016.00 1016.02 1016.25 1016.31 1016.38 1016.50 1016.50 1016.55 1016.43 1016.11 1016.28 1015.97 1015.62 1015.55 1015.43 1015.20 1014.97 1014.82 1014.64 1014.51 1014.33 1014.14 1013.89 1013.63 1013.31 1012.96 1012.78 1012.72 1012.58 1012.40 1012.44 1012.96 1013.16 1013.34 1013.52 1013.60 1013.99 1014.20 1014.52 1015.32 1015.82
1015.47 1015.53 1015.52 1015.46 1015.60 1015.90 1016.04 1016.16 1016.14 1016.01 1016.15 1016.00 1015.99 1015.98 1015.89 1015.62 1015.47 1015.23 1014.86 1014.74 1014.57 1014.36 1014.13 1013.91 1013.65 1013.26 1012.96 1012.61 1012.42 1012.25 1012.09 1011.97 1011.97 1012.27 1012.54 1012.71 1012.87 1013.07 1013.16 1013.48 1014.07 1014.64 1015.15
Thickness
5590 5595 5595 5593 5596 5606 5615 5627 5639 5660 5669 5677 5683 5681 5679 5679 5675 5678 5679 5679 5678 5682 5677 5676 5676 5676 5676 5677 5673 5669 5667 5666 5666 5664 5664 5666 5668 5667 5667 5664 5663 5661 5658
5589 5587 5588 5587 5591 5594 5606 5614 5632 5651 5664 5672 5677 5679 5676 5679 5674 5670 5672 5676 5678 5679 5672 5668 5671 5672 5669 5667 5668 5668 5662 5661 5662 5659 5656 5653 5656 5657 5657 5656 5657 5654 5651
5593 5592 5588 5584 5579 5582 5594 5605 5623 5643 5660 5654 5663 5672 5668 5671 5670 5666 5668 5670 5674 5674 5669 5665 5665 5666 5665 5664 5664 5664 5662 5655 5653 5655 5654 5643 5647 5647 5648 5647 5648 5646 5645
5598 5592 5583 5578 5570 5574 5584 5594 5614 5633 5651 5670 5661 5661 5671 5670 5669 5668 5668 5667 5665 5664 5664 5662 5660 5660 5656 5657 5659 5658 5656 5653 5648 5646 5649 5651 5649 5640 5636 5639 5640 5642 5642
5599 5592 5585 5578 5575 5580 5585 5587 5603 5627 5651 5650 5664 5661 5662 5661 5656 5656 5656 5658 5657 5656 5657 5658 5656 5654 5654 5654 5652 5651 5651 5650 5646 5643 5641 5640 5640 5642 5636 5631 5632 5632 5635
5590 5585 5581 5576 5583 5587 5597 5590 5603 5624 5636 5656 5652 5656 5648 5653 5646 5647 5648 5652 5652 5651 5650 5651 5652 5650 5650 5649 5651 5651 5647 5643 5642 5639 5637 5636 5635 5632 5629 5627 5627 5626 5626
5575 5582 5587 5592 5592 5593 5589 5596 5607 5617 5633 5649 5646 5644 5639 5639 5644 5645 5650 5648 5646 5640 5646 5647 5643 5645 5647 5647 5643 5644 5641 5638 5636 5635 5633 5632 5631 5628 5621 5621 5620 5620 5619
5569 5574 5581 5584 5592 5591 5595 5597 5614 5623 5619 5626 5636 5635 5635 5638 5642 5643 5645 5647 5647 5643 5645 5642 5642 5644 5644 5641 5639 5636 5633 5634 5629 5626 5626 5627 5629 5625 5622 5616 5614 5610 5607
5554 5562 5572 5576 5581 5589 5594 5600 5608 5616 5629 5631 5631 5632 5633 5637 5635 5638 5639 5643 5643 5641 5636 5636 5634 5636 5637 5634 5633 5631 5625 5625 5623 5621 5618 5618 5620 5620 5617 5614 5613 5608 5602
5545 5551 5558 5569 5577 5584 5597 5612 5619 5612 5614 5619 5621 5621 5632 5631 5630 5634 5632 5632 5630 5628 5628 5626 5624 5623 5626 5627 5623 5620 5619 5618 5619 5618 5618 5619 5618 5613 5612 5608 5605 5604 5605
5536 5540 5548 5558 5569 5581 5589 5589 5594 5602 5610 5615 5617 5623 5626 5625 5623 5633 5625 5623 5622 5620 5618 5619 5618 5615 5617 5618 5618 5616 5612 5614 5613 5613 5612 5610 5609 5607 5606 5601 5599 5598 5596
5529 5533 5538 5549 5558 5561 5570 5582 5594 5606 5607 5607 5614 5616 5616 5621 5620 5621 5618 5617 5614 5612 5610 5611 5607 5607 5608 5611 5612 5612 5606 5606 5606 5605 5603 5605 5601 5599 5597 5595 5595 5591 5590
5522 5526 5535 5540 5546 5553 5563 5573 5584 5591 5601 5606 5605 5605 5607 5609 5609 5609 5609 5609 5607 5606 5604 5605 5603 5601 5601 5601 5602 5603 5602 5602 5602 5602 5596 5600 5595 5592 5589 5585 5582 5581 5578
5516 5520 5526 5531 5536 5544 5555 5564 5574 5583 5594 5600 5599 5601 5602 5601 5599 5598 5601 5604 5604 5601 5599 5598 5597 5598 5595 5594 5595 5595 5595 5601 5596 5594 5594 5593 5590 5588 5583 5580 5577 5572 5568
5510 5513 5515 5521 5526 5534 5544 5551 5562 5570 5579 5585 5587 5590 5592 5592 5590 5587 5591 5593 5594 5593 5593 5593 5591 5593 5593 5593 5591 5592 5591 5590 5590 5589 5588 5587 5586 5584 5581 5578 5573 5567 5559
5503 5505 5510 5514 5521 5527 5533 5541 5550 5559 5568 5570 5570 5577 5581 5581 5579 5578 5581 5584 5585 5581 5581 5583 5584 5584 5583 5583 5584 5587 5586 5585 5584 5580 5580 5575 5574 5573 5570 5570 5570 5560 5556
5493 5498 5502 5507 5513 5516 5522 5531 5539 5545 5551 5550 5557 5560 5563 5565 5568 5571 5572 5572 5572 5572 5570 5571 5574 5575 5571 5571 5572 5572 5572 5574 5575 5572 5565 5560 5559 5558 5557 5556 5552 5548 5545
5490 5490 5495 5498 5504 5507 5513 5521 5526 5531 5534 5540 5544 5547 5551 5552 5556 5557 5556 5557 5556 5558 5559 5559 5561 5562 5561 5558 5557 5556 5558 5558 5556 5554 5552 5548 5545 5543 5544 5540 5535 5527 5524
5492 5488 5489 5492 5494 5497 5501 5507 5514 5516 5520 5523 5530 5535 5538 5541 5541 5540 5543 5544 5541 5541 5545 5547 5547 5546 5545 5546 5542 5542 5543 5544 5538 5534 5532 5529 5528 5527 5526 5524 5517 5511 5504
5504 5501 5497 5494 5493 5492 5493 5497 5502 5508 5511 5514 5522 5524 5525 5525 5528 5527 5528 5529 5528 5530 5530 5532 5533 5534 5532 5530 5527 5527 5525 5524 5521 5521 5518 5516 5513 5513 5510 5506 5499 5493 5494
5517 5510 5505 5505 5505 5506 5505 5504 5504 5503 5506 5510 5514 5516 5517 5516 5515 5514 5514 5515 5513 5512 5512 5509 5514 5514 5515 5515 5513 5511 5507 5505 5506 5506 5503 5502 5500 5498 5496 5492 5489 5483 5476
5525 5524 5520 5515 5512 5508 5508 5507 5508 5507 5508 5510 5513 5513 5514 5513 5511 5511 5511 5509 5506 5504 5502 5499 5495 5495 5495 5494 5493 5492 5491 5490 5488 5487 5488 5488 5489 5487 5484 5482 5480 5473 5468
5526 5523 5520 5517 5512 5509 5509 5508 5507 5507 5507 5508 5508 5510 5510 5510 5508 5506 5503 5501 5501 5497 5495 5490 5487 5482 5476 5475 5477 5478 5476 5474 5472 5473 5473 5475 5475 5472 5472 5469 5467 5463 5457
5525 5522 5520 5517 5513 5510 5508 5505 5503 5504 5506 5505 5502 5503 5503 5502 5501 5498 5492 5488 5485 5483 5479 5473 5467 5464 5463 5461 5460 5459 5460 5460 5457 5456 5456 5458 5460 5461 5459 5456 5454 5451 5447
5523 5522 5520 5518 5515 5511 5509 5505 5503 5499 5497 5500 5494 5495 5495 5492 5488 5486 5482 5477 5473 5470 5465 5459 5454 5450 5447 5445 5443 5441 5441 5443 5442 5436 5437 5438 5440 5444 5442 5442 5442 5438 5435
5521 5519 5519 5518 5515 5509 5506 5503 5501 5499 5494 5494 5489 5485 5481 5478 5475 5472 5468 5465 5462 5456 5450 5444 5439 5435 5432 5431 5428 5428 5427 5428 5427 5423 5425 5427 5428 5430 5433 5433 5431 5429 5428